TimeICT,TemperatureF,Dew PointF,Humidity,Sea Level PressureIn,VisibilityMPH,Wind Direction,Wind SpeedMPH,Gust SpeedMPH,PrecipitationIn,Events,Conditions,WindDirDegrees,DateUTC
1:00 AM,77,74,89,29.84,6,SW,3.5,,,Thunderstorm,Light Thunderstorm,230,2012-09-29 18:00:00
1:00 AM,77.0,75.2,94,29.83,6.2,SW,3.5,-,N/A,,Mostly Cloudy,230,2012-09-29 18:00:00
1:30 AM,77.0,75.2,94,29.83,6.2,South,2.3,-,N/A,,Mostly Cloudy,180,2012-09-29 18:30:00
2:00 AM,77.0,75.2,94,29.80,6.2,Calm,Calm,-,N/A,,Mostly Cloudy,0,2012-09-29 19:00:00
2:30 AM,77.0,75.2,94,29.80,6.2,Calm,Calm,-,N/A,,Mostly Cloudy,0,2012-09-29 19:30:00
3:00 AM,77.0,75.2,94,29.80,6.2,Calm,Calm,-,N/A,,Mostly Cloudy,0,2012-09-29 20:00:00
4:00 AM,77.0,75.2,94,29.80,6.2,WSW,4.6,-,N/A,,Mostly Cloudy,240,2012-09-29 21:00:00
4:30 AM,77.0,75.2,94,29.80,6.2,WSW,3.5,-,N/A,,Mostly Cloudy,240,2012-09-29 21:30:00
5:00 AM,77.0,73.4,89,29.80,5.6,Calm,Calm,-,N/A,,Mostly Cloudy,0,2012-09-29 22:00:00
5:30 AM,77.0,73.4,89,29.83,5.0,Calm,Calm,-,N/A,,Mostly Cloudy,0,2012-09-29 22:30:00
6:00 AM,77.0,73.4,89,29.83,3.7,Calm,Calm,-,N/A,,Mostly Cloudy,0,2012-09-29 23:00:00
6:30 AM,77.0,73.4,89,29.86,3.1,Calm,Calm,-,N/A,,Mostly Cloudy,0,2012-09-29 23:30:00
7:00 AM,77,73,84,29.88,6,Calm,Calm,,,,Scattered Clouds,,2012-09-30 00:00:00
7:00 AM,77.0,73.4,89,29.86,3.1,Calm,Calm,-,N/A,,Mostly Cloudy,0,2012-09-30 00:00:00
7:30 AM,78.8,75.2,89,29.86,-9999.0,Calm,Calm,-,N/A,,Mostly Cloudy,0,2012-09-30 00:30:00
8:00 AM,80.6,73.4,79,29.89,5.0,West,2.3,-,N/A,,Mostly Cloudy,270,2012-09-30 01:00:00
8:30 AM,82.4,73.4,74,29.89,5.0,SSW,3.5,-,N/A,,Mostly Cloudy,210,2012-09-30 01:30:00
9:00 AM,80.6,75.2,84,29.89,5.6,West,4.6,-,N/A,,Mostly Cloudy,270,2012-09-30 02:00:00
9:30 AM,82.4,75.2,79,29.89,6.2,South,4.6,-,N/A,,Mostly Cloudy,180,2012-09-30 02:30:00
10:00 AM,86.0,77.0,74,29.89,6.2,South,3.5,-,N/A,,Mostly Cloudy,180,2012-09-30 03:00:00
10:30 AM,86.0,77.0,74,29.89,6.2,East,3.5,-,N/A,,Mostly Cloudy,100,2012-09-30 03:30:00
11:00 AM,87.8,75.2,66,29.86,6.2,NNW,3.5,-,N/A,,Mostly Cloudy,330,2012-09-30 04:00:00
11:30 AM,89.6,75.2,62,29.86,6.2,NNW,3.5,-,N/A,,Mostly Cloudy,330,2012-09-30 04:30:00
12:00 PM,89.6,75.2,62,29.83,6.2,NNE,5.8,-,N/A,,Mostly Cloudy,30,2012-09-30 05:00:00
12:30 PM,89.6,75.2,62,29.83,6.2,ESE,3.5,-,N/A,,Mostly Cloudy,120,2012-09-30 05:30:00
1:00 PM,94,73,42,29.78,6,NNE,3.5,,,,Scattered Clouds,30,2012-09-30 06:00:00
1:00 PM,93.2,73.4,52,29.77,6.2,NNE,3.5,-,N/A,,Mostly Cloudy,30,2012-09-30 06:00:00
1:30 PM,93.2,73.4,52,29.77,6.2,East,5.8,-,N/A,,Mostly Cloudy,90,2012-09-30 06:30:00
2:00 PM,93.2,73.4,52,29.77,6.2,East,5.8,-,N/A,,Mostly Cloudy,90,2012-09-30 07:00:00
2:30 PM,95.0,73.4,49,29.77,6.2,NNE,3.5,-,N/A,,Mostly Cloudy,30,2012-09-30 07:30:00
3:00 PM,95.0,73.4,49,29.74,6.2,NNE,4.6,-,N/A,,Mostly Cloudy,30,2012-09-30 08:00:00
3:30 PM,95.0,73.4,49,29.74,6.2,East,5.8,-,N/A,,Mostly Cloudy,90,2012-09-30 08:30:00
4:00 PM,93.2,73.4,52,29.74,6.2,ENE,5.8,-,N/A,,Mostly Cloudy,60,2012-09-30 09:00:00
4:30 PM,93.2,73.4,52,29.74,6.2,NNE,5.8,-,N/A,,Mostly Cloudy,30,2012-09-30 09:30:00
5:00 PM,91.4,73.4,55,29.74,6.2,NNE,5.8,-,N/A,,Mostly Cloudy,30,2012-09-30 10:00:00
5:30 PM,89.6,75.2,62,29.77,6.2,NNE,5.8,-,N/A,,Mostly Cloudy,30,2012-09-30 10:30:00
6:00 PM,87.8,75.2,66,29.77,6.2,NNE,5.8,-,N/A,,Mostly Cloudy,30,2012-09-30 11:00:00
6:30 PM,87.8,75.2,66,29.77,6.2,SSW,3.5,-,N/A,,Mostly Cloudy,210,2012-09-30 11:30:00
7:00 PM,86,76,65,29.81,6,WSW,3.5,,,,Mist,240,2012-09-30 12:00:00
7:00 PM,87.8,75.2,66,29.77,6.2,WSW,3.5,-,N/A,,Mostly Cloudy,240,2012-09-30 12:00:00
7:30 PM,86.0,75.2,70,29.80,5.6,WSW,3.5,-,N/A,,Mostly Cloudy,240,2012-09-30 12:30:00
8:00 PM,86.0,75.2,70,29.80,5.0,SSW,3.5,-,N/A,,Mostly Cloudy,210,2012-09-30 13:00:00
8:30 PM,84.2,75.2,74,29.83,5.0,WSW,3.5,-,N/A,,Mostly Cloudy,240,2012-09-30 13:30:00
9:00 PM,84.2,75.2,74,29.83,5.0,Calm,Calm,-,N/A,,Mostly Cloudy,0,2012-09-30 14:00:00
9:30 PM,84.2,75.2,74,29.83,5.0,WSW,3.5,-,N/A,,Mostly Cloudy,240,2012-09-30 14:30:00
10:00 PM,82.4,75.2,79,29.86,5.0,Calm,Calm,-,N/A,,Mostly Cloudy,0,2012-09-30 15:00:00
10:30 PM,82.4,75.2,79,29.86,5.0,ESE,9.2,-,N/A,Rain-Thunderstorm,Light Thunderstorms and Rain,120,2012-09-30 15:30:00
11:00 PM,80.6,75.2,84,29.86,3.1,NNW,11.5,-,N/A,Rain-Thunderstorm,Light Thunderstorms and Rain,330,2012-09-30 16:00:00
11:30 PM,80.6,77.0,89,29.86,5.6,Calm,Calm,-,N/A,Thunderstorm,Thunderstorm,0,2012-09-30 16:30:00